Terminal Aerodrome Forecast
Issued by NWS

Home | Current Version | Previous Version | Text Only | Print | Product List | Glossary On
Versions: 1 2 3 4 5 6 7 8 9 10 11 12 13 14 15 16 17 18 19 20 21 22 23 24 25 26 27 28 29 30 31 32 33 34 35 36 37 38 39 40 41 42 43 44 45 46 47 48 49 50
000
FTUS44 KHGX 271758 AAA
TAFIAH
TAF AMD
KIAH 271758Z 2718/2824 17009KT P6SM VCTS BKN013 BKN035CB
      TEMPO 2718/2719 3SM TSRA BR OVC009CB
     FM271900 32012G18KT 4SM -SHRA BR BKN015
      TEMPO 2719/2723 1SM -TSRA BKN009CB
     FM280100 35014G20KT 6SM -RA BR OVC009
     FM280900 35012KT 3SM -RA BR OVC009
     FM281900 34009KT P6SM OVC015
     FM282300 35005KT P6SM BKN100=

USA.gov is the U.S. government's official web portal to all federal, state and local government web resources and services.